Notices

What's New in latest Release from April 7th, 2021:

- Updated Glossary, including Speed of Maximum Gust, and Total Hourly Precipitation

- Updated national and regional climate services offices contacts and prices information

- Addition of station inventory lists for 1981-2010, 1971-2000, and 1961-1990 Normals.

If you haven't already, please take our survey and provide feedback about our website: https://eccc.sondage-survey.ca/f/LanguageSelection.aspx?s=442ca660-fcf1-47c0-95a9-59707d6fd709

Hourly Data Report for November 14, 2019

SHEARWATER RCS
NOVA SCOTIA
Current Station Operator: ECCC - MSC

44°37'47.000" N
63°30'48.000" W
24.00 m
8205092
71264
AAW

Download Data

Hourly Data (November 2019)
Hourly Data Report for November 14, 2019
TIME
LST
Temp Definition
°C
Dew Point Definition
°C
Rel Hum Definition
%
Precip. Amount Definition
mm

Wind Dir Definition
10's deg

Wind Spd Definition
km/h
Visibility Definition
km
Stn Press Definition
kPa
Hmdx Definition


Wind Chill Definition


Weather Definition


00:00 -4.3 -10.3 63 0.0 32 14   102.10   -9 LegendNANA
01:00 -4.4 -10.0 65 0.0 30 14   102.25   -10 LegendNANA
02:00 -4.6 -9.6 68 0.0 30 14   102.35   -10 LegendNANA
03:00 -4.6 -9.2 70 0.0 32 15   102.45   -10 LegendNANA
04:00 -5.0 -9.3 72 0.0 33 12   102.49   -10 LegendNANA
05:00 -5.5 -9.3 74 0.0 33 7   102.58   -9 LegendNANA
06:00 -6.4 -10.0 76 0.0 32 7   102.67   -10 LegendNANA
07:00 -6.1 -9.1 79 0.0 33 8   102.77   -10 LegendNANA
08:00 -5.1 -8.1 79 0.0 31 5   102.90   -7 LegendNANA
09:00 -3.5 -8.5 68 0.0 31 9   103.00   -7 LegendNANA
10:00 -2.0 -9.3 58 0.0 34 8   103.04   -5 LegendNANA
11:00 -0.7 -9.9 50 0.0 3 3   103.09   -2 LegendNANA
12:00 -0.2 -9.8 48 0.0 21 6   103.01   -2 LegendNANA
13:00 0.4 -12.7 37 0.0 17 7   102.99     LegendNANA
14:00 0.0 -11.2 43 0.0 15 10   103.01   -3 LegendNANA
15:00 -0.1 -12.3 39 0.0 20 12   103.00   -4 LegendNANA
16:00 -0.1 -7.8 56 0.0 22 9   103.02   -3 LegendNANA
17:00 -0.9 -6.9 64 0.0 22 6   102.99   -3 LegendNANA
18:00 -0.7 -6.6 64 0.0 23 6   102.99   -3 LegendNANA
19:00 -0.1 -6.1 64 0.0 23 8   102.99   -3 LegendNANA
20:00 -0.2 -5.9 65 0.0 22 5   102.96   -2 LegendNANA
21:00 0.0 -5.4 67 0.0 20 6   102.92   -2 LegendNANA
22:00 1.2 -4.5 66 0.0 20 8   102.87     LegendNANA
23:00 2.1 -2.9 70 0.0 19 10   102.81     LegendNANA

Notes on Data Quality.

Legend

  • E = Estimated
  • M = Missing
  • NA = Not Available*
  • [empty] = Indicates an unobserved value
Date modified: